Delaware County Johnson Field Muncie US
ICAO: KMIE
IATA: MIE
Category: Medium
Scheduled Services: No

Elevation: 937 ft
TransAlt. 18000 ft.

Airport Communications:
ASOS:114.4
ATIS:133.25
INDIANAPOLIS CNTR:120.65
CTAF:120.1
MUNCIE GND:121.9
TERRE HAUTE RDO:114.4
MUNCIE TWR:120.1
UNICOM:122.95

KMIE Zoom In..

If you have problems with the map follow the link
https://www.worldairports.se/pages/airport.php?
ICAO=KMIE

Runways:

(A) RW 02 length 5198 ft width 100 ft
---- / hdg 25

(B) RW 14 length 6500 ft width 150 ft
---- / hdg 139

(C) RW 20 length 5198 ft width 100 ft
---- / hdg 205

(D) RW 32 length 6500 ft width 150 ft
ILS 109.10 / hdg 319

Location; KMIE
Day. 18 / Time. 01.53 Zulu
* Altimeter: 29.82
* Temperature: -01° c. -30.2°f.
* Wind from: 320° Speed 03 kn.
Dewpoint: -03° c.
Visibility: 5 Statute Miles.
Clouds: Overcast 700 ft.
Conditions: Mist.

KMIE 180153Z 32003KT 5SM BR OVC007 M01/M03 A2982 RMK AO2 CIG 004V010 SLP103 T10111028 $


Wind From 320°
Speed 03 kn.

 
 
jpsmedia.com for Web Design worldairports.se 2019   terms of use